Tracking 18032 objects as of 24-March-2017
HD Live streaming from Space Station
objects crossing your sky now

BEESAT 4

Track BEESAT 4 now!
10-day predictions
BEESAT 4 is classified as:


NORAD ID: 41619
Int'l Code: 2016-040W
Perigee: 503.3 km
Apogee: 520.5 km
Inclination: 97.5 °
Period: 94.7 minutes
Semi major axis: 6882 km
RCS: Unknown
Launch date: June 22, 2016
Source: Germany (GER)
Launch site: SIRHARIKOTA (SRI)
Uplink (MHz):
Downlink (MHz): 435.950
Beacon (MHz): 435.950
Mode: 4800bps GMSK CW
Call sign: DP0BEH
Status: Active

Your satellite tracking list
Your tracking list is empty





NASA's NSSDC Master Catalog

Two Line Element Set (TLE):
1 41619U 16040W   17081.58952325 +.00002125 +00000-0 +10069-3 0  9997
2 41619 097.4725 144.7876 0012514 018.7261 341.4432 15.20360743029432
Source of the keplerian elements: AFSPC